Location: Kitt Peak
(31.9633°N, 111.6000°W)
Time: 14:33:05
(UTC-07:00)

Amateur Radio Satellites - All Passes

Search period start: 22 July 2014 14:03
Search period end: 23 July 2014 14:03
Location: Kitt Peak, 31.9633°N, 111.6000°W

Satellite Date Start Highest point End Downlink Frequencies (MHz)
Time Altitude Azimuth
RS-15 22 Jul 14:02:54 14:14:09 79° 114° (ESE) 14:25:05 29.354 - 29.394 USB, Beacon 29.352 USB
AO-7 22 Jul 14:08:58 14:12:56 14° 55° (NE) 14:16:54 29.400 - 29.500 MHz
AO-Echo 22 Jul 14:20:34 14:25:37 51° 260° (W) 14:30:47 ?
UOSAT-12 22 Jul 14:23:55 14:26:02 13° 107° (ESE) 14:28:11 437.025 FM, 437.400 FM
JAS-1B 22 Jul 14:25:38 14:33:39 80° 74° (ENE) 14:43:07 435.800 - 435.900 CW/SSB
Uosat F 22 Jul 14:36:52 14:38:17 11° 64° (ENE) 14:39:43 435.120 FM
Oscar 19 22 Jul 14:51:11 14:52:29 11° 268° (W) 14:53:48 437.125 CW, 437.150 USB
TMSAT-1 22 Jul 14:59:35 15:04:53 81° 257° (WSW) 15:10:13 436.925 FM
SO-50 22 Jul 15:03:26 15:05:55 15° 310° (NW) 15:08:27 436.795 FM
OPAL 22 Jul 15:08:01 15:08:34 10° 95° (E) 15:09:08 ?
Gurwin Techsat 1B 22 Jul 15:19:53 15:24:43 35° 262° (W) 15:29:34 435.225 FM
ITAMSAT 1 22 Jul 15:23:29 15:25:29 12° 267° (W) 15:27:30 435.822 SSB
AO-7 22 Jul 15:56:03 16:04:24 80° 72° (ENE) 16:12:47 29.400 - 29.500 MHz
UOSAT-12 22 Jul 16:01:16 16:05:41 49° 301° (WNW) 16:10:13 437.025 FM, 437.400 FM
KITSAT 1 22 Jul 16:06:28 16:14:03 42° 57° (ENE) 16:21:34 435.175 FM
Uosat F 22 Jul 16:11:25 16:16:26 69° 258° (WSW) 16:21:28 435.120 FM
RS-15 22 Jul 16:18:42 16:27:35 27° 316° (NW) 16:36:25 29.354 - 29.394 USB, Beacon 29.352 USB
JAS-1B 22 Jul 16:19:59 16:25:11 18° 272° (W) 16:30:54 435.800 - 435.900 CW/SSB
Oscar 10/S400 22 Jul 16:20:50 16:35:38 16° 155° (SSE) 16:46:20 145.825 - 145.975 CW/USB, Beacon 145.810 USB
OPAL 22 Jul 16:42:45 16:47:46 68° 287° (WNW) 16:52:50 ?
Hamsat 22 Jul 16:49:16 16:51:42 15° 69° (ENE) 16:54:09 145.90 MHz
Saudisat 1A 22 Jul 17:05:07 17:06:54 12° 49° (NE) 17:08:41 436.775 MHz
JAS-2 22 Jul 17:05:16 17:12:03 34° 68° (ENE) 17:18:42 435.800 - 435.900 CW/SSB, 435.910 FM
AO-7 22 Jul 17:52:51 17:57:47 17° 266° (W) 18:02:46 29.400 - 29.500 MHz
KITSAT 1 22 Jul 18:02:05 18:09:13 36° 253° (WSW) 18:16:21 435.175 FM
Hamsat 22 Jul 18:23:37 18:27:22 32° 262° (W) 18:31:08 145.90 MHz
AO-40 22 Jul 18:34:32 18:38:06 12° 160° (SSE) 18:43:32 Beacon 2401.320
Saudisat 1A 22 Jul 18:42:31 18:46:51 60° 245° (WSW) 18:51:09 436.775 MHz
JAS-2 22 Jul 18:49:19 18:56:43 46° 262° (W) 19:04:04 435.800 - 435.900 CW/SSB, 435.910 FM
SO-67 22 Jul 18:51:47 18:55:13 69° 77° (ENE) 18:58:40 435.3500 MHz FM
STRAND 1 22 Jul 18:54:29 18:59:30 54° 101° (E) 19:04:27 ?
HO-68 22 Jul 20:20:54 20:27:51 56° 70° (ENE) 20:34:49 435.675 MHz FM
STRAND 1 22 Jul 20:35:31 20:38:10 14° 295° (WNW) 20:40:48 ?
Oscar 11 22 Jul 20:59:45 21:03:37 33° 73° (ENE) 21:07:29 145.825 FM, Beacon 2401.500 USB
RS-15 22 Jul 21:00:17 21:05:54 15° 31° (NNE) 21:11:33 29.354 - 29.394 USB, Beacon 29.352 USB
FUNcube-1 22 Jul 21:04:09 21:06:04 13° 68° (ENE) 21:07:57 145.950 - 145.970 MHz USB
SO-50 22 Jul 21:58:13 22:00:55 15° 50° (NE) 22:03:37 436.795 FM
HO-68 22 Jul 22:10:27 22:15:47 22° 264° (W) 22:21:08 435.675 MHz FM
MaSat-1 22 Jul 22:34:24 22:37:56 49° 296° (WNW) 22:42:07 437.345 MHz
Oscar 11 22 Jul 22:37:17 22:39:50 15° 266° (W) 22:42:24 145.825 FM, Beacon 2401.500 USB
FUNcube-1 22 Jul 22:37:48 22:42:04 45° 261° (W) 22:46:14 145.950 - 145.970 MHz USB
RS-15 22 Jul 23:10:26 23:21:19 57° 57° (ENE) 23:32:34 29.354 - 29.394 USB, Beacon 29.352 USB
SO-50 22 Jul 23:37:07 23:41:48 58° 245° (WSW) 23:46:32 436.795 FM
Lituanica SAT-1 22 Jul 23:56:47 23:58:42 26° 319° (NW) 00:00:37 437.275 MHz beacon
UOSAT-12 23 Jul 00:35:33 00:39:56 36° 57° (ENE) 00:44:13 437.025 FM, 437.400 FM
ISS 23 Jul 00:39:08 00:42:22 50° 132° (SE) 00:45:37 145.800 FM
Sapphire 23 Jul 00:42:23 00:46:32 23° 106° (ESE) 00:50:42 437.095 MHz 1200 baud AX-25 AFSK
PCSat 23 Jul 01:15:13 01:20:27 54° 111° (ESE) 01:25:43 145.825 MHz
RS-15 23 Jul 01:23:32 01:33:05 35° 254° (WSW) 01:43:02 29.354 - 29.394 USB, Beacon 29.352 USB
Oscar 19 23 Jul 01:24:37 01:29:16 34° 98° (E) 01:33:55 437.125 CW, 437.150 USB
Oscar 16 23 Jul 01:51:25 01:56:34 69° 102° (ESE) 02:01:42 437.025 USB, Beacon 2401.1428
ITAMSAT 1 23 Jul 01:58:52 02:03:29 32° 98° (E) 02:08:03 435.822 SSB
Gurwin Techsat 1B 23 Jul 02:03:17 02:05:36 13° 93° (E) 02:07:54 435.225 FM
AO-27 23 Jul 02:15:58 02:21:00 50° 100° (E) 02:26:00 436.795 MHz FM
UOSAT-12 23 Jul 02:16:29 02:19:46 19° 251° (WSW) 02:23:00 437.025 FM, 437.400 FM
ISS 23 Jul 02:17:20 02:19:18 15° 327° (NNW) 02:21:17 145.800 FM
OPAL 23 Jul 02:18:08 02:19:45 12° 63° (ENE) 02:21:21 ?
JAS-1B 23 Jul 02:18:27 02:26:57 37° 94° (E) 02:34:20 435.800 - 435.900 CW/SSB
Uribyol 2 23 Jul 02:19:40 02:24:45 58° 101° (E) 02:29:49 436.500 FM
Sapphire 23 Jul 02:24:42 02:29:40 37° 300° (WNW) 02:34:40 437.095 MHz 1200 baud AX-25 AFSK
AO-Echo 23 Jul 02:33:00 02:38:08 80° 102° (ESE) 02:43:04 ?
PCSat 23 Jul 03:00:34 03:04:10 18° 307° (NW) 03:07:46 145.825 MHz
Oscar 19 23 Jul 03:04:25 03:08:22 23° 291° (WNW) 03:12:20 437.125 CW, 437.150 USB
TMSAT-1 23 Jul 03:20:31 03:25:46 61° 101° (E) 03:30:58 436.925 FM
Oscar 16 23 Jul 03:33:41 03:35:16 11° 296° (WNW) 03:36:52 437.025 USB, Beacon 2401.1428
ITAMSAT 1 23 Jul 03:38:42 03:42:45 24° 291° (WNW) 03:46:47 435.822 SSB
Gurwin Techsat 1B 23 Jul 03:40:39 03:45:52 59° 286° (WNW) 03:51:03 435.225 FM
OPAL 23 Jul 03:53:07 03:58:02 66° 256° (WSW) 04:02:57 ?
AO-27 23 Jul 03:57:01 04:00:02 16° 294° (WNW) 04:03:03 436.795 MHz FM
Uribyol 2 23 Jul 04:01:12 04:03:41 14° 295° (WNW) 04:06:09 436.500 FM
AO-7 23 Jul 04:03:49 04:11:20 37° 100° (E) 04:18:46 29.400 - 29.500 MHz
JAS-1B 23 Jul 04:08:31 04:17:24 46° 293° (WNW) 04:25:12 435.800 - 435.900 CW/SSB
Uosat F 23 Jul 04:24:10 04:29:06 55° 101° (E) 04:33:59 435.120 FM
TMSAT-1 23 Jul 05:02:36 05:05:06 14° 295° (WNW) 05:07:35 436.925 FM
Oscar 10/S400 23 Jul 05:08:03 06:36:50 47° 243° (WSW) 12:04:01 145.825 - 145.975 CW/USB, Beacon 145.810 USB
AO-7 23 Jul 05:56:23 06:04:02 42° 295° (WNW) 06:11:38 29.400 - 29.500 MHz
Uosat F 23 Jul 06:04:55 06:07:22 14° 295° (WNW) 06:09:48 435.120 FM
STRAND 1 23 Jul 06:05:35 06:10:30 48° 73° (ENE) 06:15:26 ?
JAS-2 23 Jul 06:06:07 06:11:31 34° 96° (E) 06:16:25 435.800 - 435.900 CW/SSB, 435.910 FM
Hamsat 23 Jul 06:13:35 06:17:50 61° 100° (E) 06:22:05 145.90 MHz
KITSAT 1 23 Jul 06:28:39 06:36:30 56° 111° (ESE) 06:44:21 435.175 FM
PANSAT 23 Jul 06:51:34 06:54:48 25° 163° (SSE) 06:58:02 not established
MaSat-1 23 Jul 06:58:36 07:01:34 15° 55° (NE) 07:04:28 437.345 MHz
Lituanica SAT-1 23 Jul 07:46:25 07:48:27 32° 228° (SW) 07:50:27 437.275 MHz beacon
STRAND 1 23 Jul 07:46:52 07:49:52 16° 266° (W) 07:52:52 ?
JAS-2 23 Jul 07:51:28 07:56:21 26° 294° (WNW) 08:00:51 435.800 - 435.900 CW/SSB, 435.910 FM
SO-67 23 Jul 07:53:28 07:56:48 44° 284° (WNW) 08:00:07 435.3500 MHz FM
HO-68 23 Jul 07:57:53 08:00:00 11° 92° (E) 08:02:07 435.675 MHz FM
KITSAT 1 23 Jul 08:25:25 08:32:12 29° 308° (NW) 08:39:03 435.175 FM
PANSAT 23 Jul 08:30:58 08:34:41 47° 175° (S) 08:38:24 not established
MaSat-1 23 Jul 08:34:09 08:39:25 64° 251° (WSW) 08:44:20 437.345 MHz
Saudisat 1A 23 Jul 08:44:07 08:48:31 72° 299° (WNW) 08:52:57 436.775 MHz
ISS 23 Jul 08:48:15 08:51:37 74° 44° (NE) 08:54:57 145.800 FM
HO-68 23 Jul 09:41:12 09:48:23 90° 105° (ESE) 09:55:31 435.675 MHz FM
PCSat 23 Jul 10:09:18 10:12:44 17° 53° (NE) 10:16:09 145.825 MHz
PANSAT 23 Jul 10:11:00 10:14:40 43° 188° (S) 10:18:19 not established
Oscar 11 23 Jul 10:27:48 10:32:03 58° 284° (WNW) 10:36:18 145.825 FM, Beacon 2401.500 USB
FUNcube-1 23 Jul 10:31:46 10:35:47 47° 100° (E) 10:39:49 145.950 - 145.970 MHz USB
Sapphire 23 Jul 11:17:02 11:22:25 62° 63° (ENE) 11:27:45 437.095 MHz 1200 baud AX-25 AFSK
HO-68 23 Jul 11:31:45 11:35:05 14° 301° (WNW) 11:38:25 435.675 MHz FM
PCSat 23 Jul 11:51:11 11:56:30 58° 249° (WSW) 12:01:47 145.825 MHz
PANSAT 23 Jul 11:51:37 11:54:29 20° 200° (SSW) 11:57:21 not established
SO-50 23 Jul 12:10:34 12:11:52 11° 107° (ESE) 12:13:10 436.795 FM
FUNcube-1 23 Jul 12:10:51 12:11:44 11° 293° (WNW) 12:12:37 145.950 - 145.970 MHz USB
Oscar 19 23 Jul 12:37:03 12:41:26 30° 70° (ENE) 12:45:50 437.125 CW, 437.150 USB
AO-40 23 Jul 12:56:39 04:07:08 48° 182° (S) 13:26:12 Beacon 2401.320
JAS-1B 23 Jul 12:57:25 13:03:30 22° 58° (ENE) 13:10:06 435.800 - 435.900 CW/SSB
Sapphire 23 Jul 13:02:49 13:05:13 13° 257° (WSW) 13:07:38 437.095 MHz 1200 baud AX-25 AFSK
Oscar 16 23 Jul 13:03:35 13:08:36 61° 74° (ENE) 13:13:39 437.025 USB, Beacon 2401.1428
ITAMSAT 1 23 Jul 13:12:16 13:16:47 31° 70° (ENE) 13:21:19 435.822 SSB
Gurwin Techsat 1B 23 Jul 13:20:05 13:22:38 14° 65° (ENE) 13:25:12 435.225 FM
RS-15 23 Jul 13:27:19 13:38:16 60° 111° (ESE) 13:48:54 29.354 - 29.394 USB, Beacon 29.352 USB
AO-27 23 Jul 13:29:17 13:34:16 47° 73° (ENE) 13:39:16 436.795 MHz FM
Uribyol 2 23 Jul 13:32:41 13:37:45 54° 74° (ENE) 13:42:48 436.500 FM
AO-Echo 23 Jul 13:40:27 13:45:36 62° 75° (ENE) 13:50:51 ?
SO-50 23 Jul 13:47:32 13:51:52 53° 300° (WNW) 13:56:18 436.795 FM
